Regional Weather Roundup
Issued by NWS

Home | Current Version | Previous Version | Graphics & Text | Print | Product List | Glossary On
Versions: 1 2 3 4 5 6 7 8 9 10 11 12 13 14 15 16 17 18 19 20 21 22 23 24 25 26 27 28 29 30 31 32 33 34 35 36 37 38 39 40 41 42 43 44 45 46 47 48 49 50
000
ASUS43 KLMK 300502
RWRKY
KENTUCKY REGIONAL WEATHER ROUNDUP
NATIONAL WEATHER SERVICE LOUISVILLE KY
100 AM EDT THU OCT 30 2014

NOTE "FAIR" INDICATES FEW OR NO CLOUDS BELOW 12,000 FEET
WITH NO SIGNIFICANT WEATHER AND/OR OBSTRUCTIONS TO VISIBILITY.

KYZ001>023-026-027-061>063-070>075-300600-
WESTERN AND SOUTH CENTRAL KENTUCKY

CITY           SKY/WX    TMP DP  RH WIND       PRES   REMARKS
PADUCAH        CLEAR     40  38  93 CALM      30.15F
HENDERSON      CLEAR     37  34  87 CALM      30.16S
OWENSBORO      CLEAR     43  38  82 CALM      30.16S
HOPKINSVILLE   CLEAR     46  38  73 CALM      30.15R
BOWLING GREEN  CLEAR     45  36  70 CALM      30.15S
GLASGOW        CLEAR     45  36  70 CALM      30.14S
$$

KYZ024-025-028>034-038-045-046-053-300600-
NORTH CENTRAL KENTUCKY

CITY           SKY/WX    TMP DP  RH WIND       PRES   REMARKS
LOUISVILLE/SDF PTCLDY    47  36  65 SE7       30.15S
LOUISVILLE/LOU PTCLDY    46  35  65 CALM      30.15F
FORT KNOX      CLEAR     39  35  83 N5        30.13S
$$

KYZ035>037-039>044-047>052-055>060-089>105-300600-
NORTHEAST KENTUCKY

CITY           SKY/WX    TMP DP  RH WIND       PRES   REMARKS
LEXINGTON      CLEAR     45  35  68 N6        30.13S
COVINGTON      MOCLDY    43  35  73 NW3       30.13S
FRANKFORT      CLEAR     42  35  76 CALM      30.14R
$$

KYZ054-064>069-076>088-106>120-300600-
SOUTHEAST KENTUCKY

CITY           SKY/WX    TMP DP  RH WIND       PRES   REMARKS
JACKSON        CLEAR     47  35  63 CALM      30.10S
LONDON         CLEAR     45  37  73 CALM      30.12S
SOMERSET       CLEAR     41  39  93 CALM      30.14S
MIDDLESBORO    CLEAR     39  38  99 CALM      30.12S
MONTICELLO     CLEAR     39  38  97 CALM      30.15S
$$




USA.gov is the U.S. government's official web portal to all federal, state and local government web resources and services.